Temp
17 17 18 19 20 20 21 21 21 22 23 24 24 24 24 25 25 25 24 31 29 27 25 25 25 25 24 23 24 23 23 25 28 29 28 29 28 29 28 26 28 27 24 24 22
18 18 18 19 20 19 20 20 20 21 23 24 24 24 25 25 24 23 32 31 29 27 25 26 26 25 24 24 24 23 23 27 29 30 28 28 28 28 27 27 26 26 25 23 22
19 19 19 19 20 20 19 20 21 21 23 24 24 24 25 24 23 29 33 30 28 28 26 26 26 26 24 23 25 24 26 27 29 30 29 29 28 29 27 26 26 25 24 23 22
17 17 17 17 19 19 18 19 21 21 23 24 24 25 25 23 31 32 33 31 29 28 27 26 26 26 24 25 25 27 27 27 28 32 31 29 29 28 28 27 27 26 24 23 23
15 15 15 15 16 19 19 19 21 21 23 24 25 25 23 25 28 32 33 30 28 28 28 28 26 26 27 25 26 27 29 30 30 29 30 30 29 28 28 27 27 26 26 24 23
12 13 15 15 14 18 19 20 21 21 22 23 24 24 22 29 32 32 31 29 28 28 28 28 28 28 29 28 28 28 27 26 30 30 31 30 28 28 28 27 27 26 25 25 24
12 12 14 16 14 16 21 21 21 22 22 22 23 21 22 28 31 31 31 30 28 28 27 29 29 29 30 30 29 27 25 25 26 28 28 30 28 27 27 27 26 26 26 26 25
12 13 15 16 17 19 22 22 22 22 22 22 21 19 23 30 31 30 29 29 29 29 30 29 29 28 29 27 29 25 23 23 24 26 27 27 27 27 27 27 26 26 26 27 26
13 14 16 18 19 22 23 23 23 22 21 21 19 20 27 28 29 31 30 30 28 28 28 29 30 28 30 28 27 26 25 23 26 28 27 27 26 27 27 27 26 26 26 27 27
14 14 16 18 21 23 23 23 22 21 19 19 19 23 26 28 30 31 31 31 30 29 29 29 28 27 24 26 27 28 27 26 25 28 28 26 26 27 27 27 27 26 26 26 27
15 16 20 21 22 23 23 22 20 21 20 24 25 26 30 32 32 31 31 30 31 31 30 30 28 28 28 27 29 30 29 27 27 27 28 28 27 28 27 28 27 26 25 25 26
18 20 21 22 22 22 21 20 25 27 25 23 24 25 27 31 32 31 31 30 30 29 30 28 28 29 29 28 30 30 30 28 29 29 27 28 28 28 27 28 27 28 27 26 26
20 22 23 23 23 22 21 24 27 27 24 27 25 27 29 29 30 30 30 29 31 30 30 28 30 31 32 30 29 28 28 27 28 28 27 26 26 26 27 28 27 27 28 29 28
21 23 24 23 19 21 21 26 27 27 22 28 29 31 30 29 32 32 32 31 30 30 29 29 30 32 32 31 29 31 29 30 28 28 27 26 26 26 25 26 28 26 26 27 28
23 24 24 23 22 20 27 29 28 27 27 31 30 33 31 31 32 33 32 32 30 31 30 30 32 31 31 32 33 32 30 29 29 26 25 26 25 24 24 25 26 25 25 25 26
24 25 24 23 22 28 28 29 28 24 29 31 31 32 32 31 32 32 32 32 31 30 30 29 31 32 31 34 33 31 28 26 25 25 26 25 25 24 24 25 26 26 25 26 25
25 26 24 25 26 28 28 25 24 27 31 32 31 31 30 31 32 31 30 30 29 30 30 29 32 32 33 34 33 30 27 25 26 26 25 25 24 24 26 26 26 26 26 26 24
27 27 25 27 27 27 28 24 28 30 29 31 30 29 30 30 31 31 30 28 30 29 27 29 30 34 35 33 33 32 29 27 31 26 26 26 25 25 25 26 26 26 25 26 26
24 24 25 28 29 26 22 24 27 30 31 31 31 31 31 31 32 31 29 27 29 28 30 28 30 31 31 34 33 32 30 28 23 23 25 23 25 25 24 25 25 25 25 26 26
24 23 25 27 28 26 22 25 26 28 30 29 30 30 30 30 31 30 29 31 31 28 30 31 30 32 32 35 33 34 28 30 24 26 25 25 24 24 26 27 26 26 25 26 25
24 24 27 27 29 21 25 25 27 31 30 30 28 29 29 29 28 28 30 33 32 32 30 29 28 31 32 33 33 30 30 24 23 23 23 24 25 23 24 24 25 26 25 24 25
21 25 27 26 25 18 23 26 30 30 30 30 29 29 30 29 30 30 32 32 34 31 32 30 25 29 32 32 30 31 32 26 26 26 22 23 25 26 24 24 24 24 24 24 24
20 21 27 28 25 24 25 30 29 29 28 30 29 28 28 27 29 28 30 31 31 32 32 30 25 26 28 29 30 30 30 24 23 22 23 25 25 24 22 23 24 23 24 23 23
21 24 22 22 21 26 26 27 30 30 28 29 28 28 27 26 25 27 28 30 31 29 25 26 24 26 27 29 29 32 32 30 27 26 23 24 25 25 24 24 24 24 23 24 22
18 20 21 23 23 21 25 27 29 28 29 27 28 27 28 26 26 27 27 27 30 27 27 27 27 28 28 28 30 32 31 31 30 25 29 26 25 25 24 24 24 24 24 23 22
18 18 18 19 20 24 23 26 28 29 28 29 28 28 27 28 28 29 28 28 30 29 27 24 28 28 29 28 29 29 30 28 27 26 26 26 28 25 25 24 23 23 23 23 22
19 19 18 20 21 24 24 28 27 28 30 30 29 28 28 29 28 27 26 27 28 30 28 26 25 25 28 26 29 28 29 30 28 27 28 28 26 24 25 24 23 22 22 23 22
Height
795 793 790 788 786 785 783 781 779 778 777 775 774 772 770 769 767 765 763 758 761 764 768 770 771 772 774 780 780 781 800 809 797 796 792 781 789 784 784 793 791 793 801 805 812
793 791 788 786 784 783 781 779 778 776 775 773 772 771 769 767 766 763 754 757 760 763 769 769 770 772 777 780 781 789 806 798 781 780 785 785 786 785 792 796 798 798 803 808 814
790 788 785 783 782 780 779 777 775 774 773 772 770 770 768 766 767 755 751 757 761 762 768 769 771 771 779 781 783 791 800 787 780 776 778 787 788 781 794 804 797 800 804 811 816
788 785 782 780 778 777 776 774 774 772 771 770 769 768 767 767 781 751 752 756 762 766 769 771 773 779 789 792 785 793 784 786 782 771 777 787 784 791 789 790 788 796 803 809 815
784 781 779 777 775 773 772 772 771 771 770 769 768 767 766 767 760 750 753 759 764 767 767 768 775 779 789 788 786 794 783 779 781 777 772 776 787 789 791 787 793 799 806 810 815
781 777 774 773 771 770 769 769 769 769 768 767 767 766 767 773 751 750 754 759 761 765 767 767 768 770 778 783 787 786 788 793 779 779 776 782 790 787 792 791 797 801 807 811 814
777 774 771 769 768 766 766 766 767 767 766 766 766 766 767 758 750 751 753 755 760 761 765 762 766 771 773 782 779 780 802 803 801 788 786 780 800 799 791 795 800 803 805 810 813
774 771 767 765 764 763 763 764 764 764 765 765 766 767 767 751 750 752 755 758 762 764 764 767 771 775 780 782 785 804 812 831 813 800 789 791 818 797 792 798 804 806 807 809 812
770 768 765 762 760 760 761 762 762 763 764 765 768 768 764 751 751 751 753 754 759 763 765 772 774 780 779 798 810 810 835 837 819 795 796 796 814 797 794 798 804 806 808 809 810
767 764 762 759 758 758 758 760 762 764 765 767 769 772 757 753 746 748 752 755 758 762 768 771 779 792 798 806 827 816 823 826 818 798 795 801 807 796 795 799 802 803 807 806 807
764 762 760 758 757 757 758 760 766 769 765 758 755 756 746 744 745 747 751 755 757 762 780 769 791 803 792 789 782 784 802 813 797 793 800 801 798 790 792 794 799 803 804 805 804
763 760 758 757 756 756 756 757 753 756 763 746 749 750 746 745 750 745 750 762 764 782 771 785 798 775 771 775 780 783 793 803 792 787 800 803 807 798 791 788 790 791 797 799 801
762 759 758 756 756 755 754 753 753 752 765 749 743 744 741 742 750 748 746 756 763 777 776 792 775 762 770 777 786 788 794 797 797 793 797 810 820 812 798 790 785 785 786 788 794
760 758 757 756 759 755 753 752 750 749 787 763 748 737 736 737 748 735 739 751 763 774 776 781 762 764 767 776 779 786 769 777 791 800 824 809 840 818 809 801 796 797 794 792 792
759 757 756 756 756 756 753 749 747 749 808 750 746 728 731 745 743 741 736 747 769 768 774 780 766 769 772 765 757 773 759 776 787 810 822 822 836 831 815 810 800 797 796 795 793
757 756 755 755 755 752 749 747 748 790 797 756 741 745 748 745 745 740 744 741 749 765 765 767 750 755 756 743 749 758 781 798 806 818 843 829 835 840 826 809 794 784 786 787 788
753 752 753 753 751 749 749 749 791 797 750 759 757 751 756 759 754 752 761 768 783 793 792 775 759 744 738 754 753 769 797 842 845 845 851 828 839 831 807 795 791 784 776 775 781
750 749 749 748 749 751 750 773 791 763 765 744 750 757 768 761 759 758 767 782 769 776 798 800 799 751 736 749 763 767 781 825 828 854 845 825 843 826 796 789 784 780 779 773 778
747 747 748 746 746 752 763 795 781 760 748 752 752 765 767 759 759 762 774 783 770 770 792 800 791 747 741 737 743 768 791 783 833 839 843 850 825 804 790 787 786 788 783 771 782
746 746 747 747 748 753 775 783 769 747 742 747 771 766 777 769 770 771 778 757 761 756 752 768 795 755 745 733 743 752 768 799 819 846 862 851 843 833 794 785 787 789 785 780 780
748 753 748 750 751 763 782 778 758 736 741 752 769 770 767 769 772 779 772 751 746 748 750 764 783 773 755 759 765 774 782 803 813 827 856 865 840 797 789 789 791 793 790 787 784
752 769 754 756 770 782 783 766 744 747 740 748 753 759 762 762 767 767 764 756 735 743 760 759 785 793 770 753 752 756 761 786 816 827 840 840 832 778 782 783 783 778 781 781 776
766 767 758 757 788 783 769 756 753 753 756 753 761 759 756 770 775 771 763 746 742 745 756 755 795 814 795 778 763 770 766 787 796 809 830 836 829 782 786 785 781 784 780 778 771
767 780 770 765 773 777 778 772 765 749 759 758 763 757 766 777 773 779 773 754 746 750 752 754 795 801 818 797 781 776 766 767 782 809 825 821 809 794 790 791 784 780 779 775 775
775 792 789 793 784 785 775 772 771 773 758 762 771 772 774 789 784 782 775 768 753 755 755 764 794 786 783 780 772 768 769 765 774 794 794 803 805 795 791 788 782 781 780 780 783
791 798 791 792 790 782 784 784 780 771 768 772 779 775 773 781 779 783 778 774 772 760 767 774 791 784 786 777 775 780 772 773 777 788 791 796 795 785 783 784 787 785 782 782 784
794 794 796 795 793 791 793 781 780 770 765 762 765 772 776 770 763 763 763 763 764 767 775 780 794 802 803 792 782 800 782 773 775 778 778 799 786 783 789 788 790 790 788 785 785
Wind_Speed
18 18 17 16 15 14 13 13 12 9 8 8 8 8 9 9 8 3 6 4 10 23 20 14 10 9 9 3 3 1 4 3 2 4 3 10 8 7 7 10 3 3 6 12 24
20 18 18 17 16 14 12 13 12 10 8 8 8 8 9 10 3 8 7 11 18 27 20 13 4 2 4 3 2 4 4 2 1 2 8 14 7 9 8 10 3 9 13 22 24
21 20 19 17 15 14 14 11 12 10 8 8 8 8 7 7 1 6 14 16 27 25 19 15 7 3 5 3 2 3 2 3 3 2 11 7 9 5 16 2 5 20 17 20 21
22 22 20 19 17 15 13 12 11 10 8 8 8 6 6 1 4 3 18 22 27 23 15 12 3 3 3 3 2 3 5 3 5 1 9 9 7 9 4 3 14 16 18 23 16
23 22 20 18 17 15 14 11 9 8 8 8 6 3 0 1 7 5 23 24 30 18 17 8 3 3 0 3 4 3 6 6 13 11 7 7 7 7 4 12 14 17 17 17 15
22 21 19 18 17 15 13 11 8 6 7 6 2 2 1 2 2 11 27 25 31 22 14 10 6 6 1 4 3 3 9 21 12 9 6 5 8 7 5 14 16 17 16 14 17
22 20 19 17 17 15 11 9 6 5 5 3 3 4 1 9 3 18 27 30 30 30 7 22 8 3 1 2 5 13 10 17 13 14 4 11 3 5 15 15 16 16 16 12 17
22 20 19 17 16 13 8 6 4 3 1 1 9 4 6 4 6 23 23 19 27 29 24 9 7 4 2 5 4 7 8 8 13 13 6 5 3 6 13 17 14 12 13 13 12
22 20 19 16 14 9 5 3 1 4 4 9 5 2 6 2 8 21 23 11 21 20 23 6 6 6 3 5 3 5 7 4 8 4 4 3 4 8 11 14 13 12 11 12 12
22 20 17 14 9 5 2 2 4 5 7 4 1 2 4 6 9 16 21 10 5 6 5 6 5 5 4 4 5 6 8 10 12 4 3 7 5 11 12 12 13 11 9 11 12
20 17 13 9 5 3 4 5 3 1 4 7 5 2 2 2 11 10 16 7 2 2 4 1 3 5 11 10 8 6 15 14 9 9 1 3 13 19 12 13 8 8 8 9 13
19 15 10 6 3 1 0 2 4 2 5 10 5 5 8 1 3 5 15 6 5 5 2 4 6 10 5 6 7 5 6 6 4 7 3 1 4 3 8 9 8 7 8 8 6
18 13 8 4 2 0 4 5 2 11 2 6 5 5 5 10 8 8 13 7 4 5 6 6 9 5 3 4 3 4 7 9 6 8 3 5 1 3 2 4 9 7 7 9 7
14 10 5 2 1 3 5 9 18 3 5 5 3 5 5 6 2 5 15 7 2 5 4 5 7 5 4 6 8 5 12 11 11 10 3 4 2 2 4 8 4 5 1 1 4
11 7 4 2 3 2 8 16 5 3 3 1 3 0 3 7 3 4 7 5 7 5 6 7 6 7 5 5 5 7 12 11 5 6 6 6 4 5 5 6 7 3 4 5 4
9 4 3 3 5 4 15 13 3 5 2 1 4 5 4 3 0 1 4 4 3 4 2 10 3 4 8 5 8 9 8 9 6 4 2 3 4 4 3 6 6 7 6 7 6
9 7 5 4 3 4 14 4 4 3 1 3 4 3 4 4 2 4 6 6 4 2 2 6 6 5 4 3 4 5 5 3 3 1 4 2 4 6 5 10 9 12 10 11 7
13 8 9 14 5 2 6 5 1 1 5 4 4 3 4 3 4 1 4 1 2 4 2 0 7 2 2 7 8 0 7 5 3 3 3 1 2 5 13 7 9 8 8 12 9
9 2 3 2 12 9 5 3 4 2 4 5 5 4 3 1 2 3 6 5 6 9 7 3 5 6 3 2 7 3 3 4 8 3 4 3 5 8 11 12 13 7 8 17 3
4 3 3 1 13 7 4 4 4 4 3 5 4 3 4 4 5 5 4 4 5 11 2 2 3 2 5 2 5 3 7 3 3 5 3 4 5 5 7 1 6 12 8 2 2
3 4 8 11 4 5 1 5 6 3 2 4 4 2 5 2 5 6 6 4 4 3 6 4 4 7 2 2 3 4 1 7 6 4 5 4 5 7 12 6 1 9 4 5 6
3 3 3 3 4 1 1 4 6 6 5 6 4 1 1 2 3 3 4 4 1 5 4 3 5 2 4 1 2 3 4 5 5 3 3 4 5 4 8 9 8 12 5 3 5
3 1 4 7 4 6 7 5 5 9 8 5 8 6 6 6 5 6 6 7 9 3 3 3 4 3 9 7 6 5 4 6 6 4 3 5 5 3 6 8 6 7 9 8 10
2 3 4 4 1 3 4 6 4 4 6 6 5 6 6 9 7 5 8 6 7 5 6 8 4 5 5 7 3 2 4 3 5 4 6 5 3 5 7 8 10 9 7 5 7
4 1 2 4 5 6 2 3 6 7 4 6 7 6 3 6 6 7 4 7 5 9 6 5 2 1 4 6 3 2 3 4 5 5 5 8 9 8 7 9 7 2 2 5 6
3 4 5 3 4 6 7 7 8 6 7 5 7 2 5 3 3 3 3 2 2 6 5 4 0 2 5 7 7 6 6 7 6 5 9 8 3 5 5 2 4 3 2 4 5
7 3 3 5 6 3 4 3 5 4 3 3 4 4 3 4 5 7 6 5 5 1 2 3 3 3 5 6 4 6 7 2 3 4 13 10 8 8 5 7 6 6 4 1 4
Wind_Direction
338 336 334 334 336 338 339 335 337 338 334 330 329 330 327 323 317 231 231 204 164 158 152 144 178 125 138 73 60 181 61 53 48 142 163 145 136 183 98 134 131 131 124 155 165
335 332 331 333 335 336 335 331 330 328 324 321 324 328 324 324 305 246 228 158 162 160 151 162 195 108 113 110 136 62 62 249 310 34 144 145 159 137 126 162 65 102 104 142 158
332 330 327 327 327 327 326 324 321 322 319 318 318 324 319 327 292 235 193 169 165 168 159 172 150 33 35 22 113 138 143 324 342 231 140 141 135 117 141 207 192 151 143 144 158
331 326 322 320 320 318 318 318 318 318 318 317 316 318 312 356 170 173 177 170 166 159 169 147 194 55 72 17 352 17 239 235 302 56 128 156 151 138 196 229 149 146 145 152 168
328 324 320 316 315 315 315 314 315 315 319 318 311 306 331 277 253 193 168 164 161 157 173 168 161 123 35 208 121 315 334 355 336 295 168 159 166 148 218 128 138 141 158 167 174
327 323 320 316 315 312 311 311 317 317 316 315 301 193 149 234 248 180 169 172 174 172 185 189 201 195 287 182 147 50 360 355 326 301 233 165 152 131 140 142 149 155 167 174 183
329 323 320 317 314 310 309 312 323 326 309 299 164 130 60 230 234 183 181 182 183 184 177 215 212 11 334 58 59 49 23 20 355 353 96 107 91 148 151 158 162 173 177 176 189
330 325 322 316 310 307 309 316 315 316 309 253 148 134 235 297 239 185 185 196 197 205 213 235 215 266 259 129 91 80 54 350 320 320 331 65 228 152 158 162 177 186 187 184 195
331 326 322 317 310 308 322 311 317 132 94 128 124 144 269 129 177 196 192 198 194 215 231 246 162 215 122 123 79 200 152 117 288 209 259 130 139 180 165 175 182 188 197 201 202
331 325 320 316 319 329 353 110 124 112 108 118 286 23 253 225 201 193 200 200 166 150 244 174 181 156 13 97 231 184 117 139 242 231 210 161 151 152 175 189 190 193 205 203 207
337 332 329 328 337 356 110 130 57 62 203 195 189 243 319 275 186 197 194 172 308 150 220 203 131 206 223 200 215 190 145 167 227 232 266 264 160 170 160 171 178 200 199 211 217
346 341 334 342 355 336 196 179 193 159 302 224 229 268 261 250 189 236 184 154 180 190 232 11 251 236 230 211 217 212 157 193 179 162 124 51 265 230 174 168 167 186 216 204 203
348 347 346 360 351 319 232 236 344 318 120 293 186 189 210 153 206 223 147 175 216 163 230 181 246 342 185 189 218 204 192 185 158 147 128 124 256 5 329 195 188 189 199 229 192
347 351 354 30 12 324 274 347 336 164 60 277 229 269 158 161 226 195 173 141 249 217 207 238 278 230 296 177 165 284 187 164 146 138 190 68 182 26 300 303 74 38 1 91 233
343 351 334 249 305 212 326 340 345 81 66 149 194 49 101 136 159 244 161 65 186 221 110 247 266 341 324 241 183 243 143 142 136 78 66 336 72 308 357 299 264 262 273 294 288
329 318 312 290 285 288 344 345 87 42 9 65 137 164 114 15 155 79 124 66 149 165 315 255 260 244 227 277 168 113 77 45 52 83 34 284 103 297 243 247 285 269 241 240 243
326 263 231 215 236 314 342 36 36 130 2 187 152 106 152 209 303 162 176 173 174 88 328 321 279 278 170 87 60 93 106 40 18 62 217 234 71 234 246 246 247 258 236 236 189
333 262 246 239 231 313 8 51 301 198 228 53 102 84 138 140 260 25 85 172 263 73 53 65 329 250 94 181 185 262 132 152 216 145 241 24 129 249 229 250 233 230 262 250 231
345 357 249 296 227 238 67 63 234 225 280 105 52 71 339 280 122 145 159 207 219 166 180 151 279 303 243 233 121 182 74 163 106 6 72 309 284 292 234 240 211 244 196 240 80
348 358 339 78 131 113 76 254 258 223 28 63 106 188 202 255 137 137 176 223 213 194 128 232 308 279 317 22 42 103 156 75 17 130 91 322 290 247 297 307 234 188 194 179 7
25 51 345 147 121 50 110 244 281 297 183 80 148 158 217 233 167 156 186 295 216 98 145 139 155 291 22 20 222 26 32 57 111 101 142 159 267 228 254 271 168 144 156 175 206
24 50 59 160 32 46 213 215 329 335 9 62 94 134 336 30 73 132 152 233 297 144 158 224 127 263 245 302 330 211 138 134 122 196 87 132 257 279 251 291 304 312 321 226 270
64 287 113 347 41 342 319 340 54 27 19 37 9 39 28 27 71 43 12 3 20 87 150 207 30 18 350 3 8 14 11 104 110 95 190 128 248 353 321 304 300 315 310 324 333
64 36 341 42 130 336 305 334 28 6 77 61 16 54 43 27 5 36 5 347 350 47 52 75 87 136 167 232 202 324 314 150 120 112 167 202 183 284 285 296 301 288 299 345 349
22 40 194 338 344 333 335 1 14 9 28 43 21 41 60 32 3 19 343 338 357 356 33 86 72 178 238 253 210 328 300 271 121 138 144 193 158 220 222 237 265 289 10 353 20
64 30 355 300 310 355 5 350 17 347 20 359 103 43 60 84 144 300 21 325 287 344 37 8 146 325 336 1 25 57 30 52 52 110 74 109 88 167 225 58 111 147 17 349 22
2 17 102 299 344 51 321 333 11 342 323 33 330 121 131 177 207 218 206 228 225 313 1 65 101 53 295 350 6 18 330 343 81 68 148 155 206 156 154 161 167 174 200 256 349